This is the latest recevied weather packets stored in our database for station/object ALAKES. If no packets are shown the sender has not sent any weather packets the latest 10 day(s).
| Time | Temp. | Humidity | Pressure | Rain* | Wind** | Luminosity | Snow |
|---|---|---|---|---|---|---|---|
| 1787528103 | 16.11° C | 30% | - | 0 mm | - | - | - |
| 1787527475 | -17.22° C | 100% | 6.3 hPa | 17.02 mm | - | - | - |
| 1787526843 | 16.67° C | 28% | - | 0 mm | - | - | - |
| 1787526197 | 17.22° C | 29% | - | 0 mm | - | - | - |
| 1787525549 | 16.67° C | 29% | - | 0 mm | - | - | - |
| 1787524917 | 17.22° C | 28% | - | 0 mm | - | - | - |
| 1787524295 | 16.11° C | 29% | - | 0 mm | - | - | - |
| 1787523647 | 16.11° C | 28% | - | 0 mm | - | - | - |
| 1787523009 | 16.67° C | 28% | - | 0 mm | - | - | - |
| 1787522377 | 16.11° C | 29% | - | 0 mm | - | - | - |
| 1787521745 | 16.11° C | 27% | - | 0 mm | - | - | - |
| 1787521115 | 15.56° C | 27% | - | 0 mm | - | - | - |
| 1787520455 | 15° C | 30% | - | 0 mm | - | - | - |
| 1787519811 | 15° C | 30% | - | 0 mm | - | - | - |
| 1787519165 | 15.56° C | 29% | - | 0 mm | - | - | - |
| 1787518514 | 15.56° C | 31% | - | 0 mm | - | - | - |
| 1787517868 | 15° C | 33% | - | 0 mm | - | - | - |
| 1787517317 | 14.44° C | 33% | - | 0 mm | - | - | - |
| 1787517214 | 14.44° C | 33% | - | 0 mm | - | - | - |
| 1787516529 | 15° C | 32% | - | 0 mm | - | - | - |
| 1787515974 | 14.44° C | 35% | - | 0 mm | - | - | - |
| 1787515885 | 14.44° C | 35% | - | 0 mm | - | - | - |
| 1787515255 | 14.44° C | 34% | - | 0 mm | - | - | - |
| 1787514605 | 14.44° C | 37% | - | 0 mm | - | - | - |
| 1787513973 | 14.44° C | 35% | - | 0 mm | - | - | - |
* Rain latest 24 hours (hover to see other rain measurements)
** Current wind speed in m/s (hover to see current wind gust speed)